• en Suisse
  • Liste des pays
  • À 7 jours
  • Température de l'eau
  • Carte satellitaire
  • Carte météo
  • Widgets météo
  • user-avatar
    Se connecter

    Météo par heure à Sredniy Put

    Ce jour, 21 Octobre, Dimanche

    Heure Température Précipitation Vent Pression Humidité
    00:00 +6°C° 0 mm 1 m/s 764 mmHg 93%
    01:00 +6°C° 0 mm 1 m/s 764 mmHg 94%
    02:00 +6°C° 0 mm 1 m/s 764 mmHg 94%
    03:00 +5°C° 0 mm 1 m/s 764 mmHg 95%
    04:00 +5°C° 0 mm 1 m/s 765 mmHg 95%
    05:00 +5°C° 0 mm 1 m/s 765 mmHg 95%
    06:00 +5°C° 0 mm 1 m/s 765 mmHg 95%
    07:00 +5°C° 0 mm 1 m/s 765 mmHg 95%
    08:00 +5°C° 0 mm 1 m/s 765 mmHg 95%
    09:00 +5°C° 0 mm 2 m/s 765 mmHg 89%
    10:00 +7°C° 0 mm 2 m/s 765 mmHg 83%
    11:00 +8°C° 0 mm 2 m/s 765 mmHg 77%
    12:00 +9°C° 0 mm 2 m/s 765 mmHg 74%
    13:00 +9°C° 0 mm 2 m/s 765 mmHg 71%
    14:00 +10°C° 0 mm 3 m/s 765 mmHg 68%
    15:00 +9°C° 0 mm 3 m/s 765 mmHg 72%
    16:00 +8°C° 0 mm 3 m/s 765 mmHg 77%
    17:00 +7°C° 0 mm 3 m/s 764 mmHg 82%
    18:00 +5°C° 0 mm 3 m/s 764 mmHg 83%
    19:00 +5°C° 0 mm 3 m/s 764 mmHg 85%
    20:00 +5°C° 0 mm 4 m/s 764 mmHg 86%
    21:00 +5°C° 0 mm 4 m/s 763 mmHg 87%
    22:00 +5°C° 0 mm 4 m/s 763 mmHg 88%
    23:00 +5°C° 0 mm 5 m/s 763 mmHg 88%

    Demain, 22 Octobre, Lundi

    Heure Température Précipitation Vent Pression Humidité
    00:00 +5°C° 0 mm 5 m/s 762 mmHg 88%
    01:00 +5°C° 0 mm 5 m/s 762 mmHg 88%
    02:00 +5°C° 0 mm 5 m/s 761 mmHg 87%
    03:00 +4°C° 0 mm 6 m/s 761 mmHg 88%
    04:00 +5°C° 0 mm 6 m/s 760 mmHg 88%
    05:00 +5°C° 0 mm 6 m/s 760 mmHg 88%
    06:00 +5°C° 0 mm 6 m/s 759 mmHg 87%
    07:00 +7°C° 0 mm 6 m/s 758 mmHg 87%
    08:00 +6°C° 0 mm 7 m/s 758 mmHg 86%
    09:00 +8°C° 0.1 mm 7 m/s 757 mmHg 85%
    10:00 +8°C° 0.1 mm 7 m/s 757 mmHg 85%
    11:00 +9°C° 0.1 mm 7 m/s 757 mmHg 84%
    12:00 +9°C° 0.8 mm 7 m/s 756 mmHg 85%
    13:00 +9°C° 0.8 mm 6 m/s 756 mmHg 87%
    14:00 +9°C° 0.8 mm 6 m/s 755 mmHg 88%
    15:00 +9°C° 0.8 mm 6 m/s 755 mmHg 88%
    16:00 +9°C° 0.8 mm 5 m/s 755 mmHg 88%
    17:00 +9°C° 0.8 mm 5 m/s 755 mmHg 87%
    18:00 +8°C° 0.1 mm 5 m/s 755 mmHg 85%
    19:00 +7°C° 0.1 mm 5 m/s 755 mmHg 82%
    20:00 +7°C° 0.1 mm 5 m/s 756 mmHg 79%
    21:00 +6°C° 0 mm 5 m/s 756 mmHg 79%
    22:00 +5°C° 0 mm 4 m/s 756 mmHg 78%
    23:00 +4°C° 0 mm 4 m/s 756 mmHg 78%

    Après-demain, 23 Octobre, Mardi

    Heure Température Précipitation Vent Pression Humidité
    00:00 +4°C° 0 mm 4 m/s 756 mmHg 78%
    01:00 +4°C° 0 mm 4 m/s 756 mmHg 79%
    02:00 +3°C° 0 mm 3 m/s 756 mmHg 80%
    03:00 +3°C° 0 mm 3 m/s 755 mmHg 81%
    04:00 +3°C° 0 mm 3 m/s 755 mmHg 83%
    05:00 +3°C° 0 mm 3 m/s 754 mmHg 84%
    06:00 +3°C° 0 mm 3 m/s 754 mmHg 84%
    07:00 +3°C° 0 mm 3 m/s 753 mmHg 85%
    08:00 +3°C° 0 mm 4 m/s 753 mmHg 85%
    09:00 +4°C° 0 mm 4 m/s 752 mmHg 81%
    10:00 +5°C° 0 mm 4 m/s 751 mmHg 77%
    11:00 +6°C° 0 mm 5 m/s 750 mmHg 74%
    12:00 +6°C° 0 mm 5 m/s 749 mmHg 72%
    13:00 +5°C° 0 mm 6 m/s 747 mmHg 71%
    14:00 +5°C° 0 mm 6 m/s 746 mmHg 69%
    15:00 +5°C° 0.4 mm 7 m/s 744 mmHg 72%
    16:00 +4°C° 0.4 mm 7 m/s 743 mmHg 74%
    17:00 +4°C° 0.4 mm 8 m/s 741 mmHg 77%
    18:00 +4°C° 1 mm 7 m/s 740 mmHg 79%
    19:00 +4°C° 1 mm 7 m/s 738 mmHg 80%
    20:00 +4°C° 1 mm 7 m/s 737 mmHg 82%
    21:00 +4°C° 0.5 mm 6 m/s 736 mmHg 84%
    22:00 +4°C° 0.5 mm 6 m/s 735 mmHg 85%
    23:00 +5°C° 0.5 mm 5 m/s 734 mmHg 87%

    24 Octobre, Mercredi

    Heure Température Précipitation Vent Pression Humidité
    00:00 +5°C° 0.4 mm 5 m/s 733 mmHg 88%
    01:00 +5°C° 0.4 mm 4 m/s 732 mmHg 90%
    02:00 +5°C° 0.4 mm 4 m/s 732 mmHg 91%
    03:00 +5°C° 0.2 mm 3 m/s 732 mmHg 91%
    04:00 +5°C° 0.2 mm 3 m/s 731 mmHg 91%
    05:00 +4°C° 0.2 mm 3 m/s 731 mmHg 92%
    06:00 +4°C° 0.1 mm 3 m/s 731 mmHg 92%
    07:00 +4°C° 0.1 mm 3 m/s 731 mmHg 92%
    08:00 +5°C° 0.1 mm 2 m/s 731 mmHg 92%
    09:00 +6°C° 0 mm 2 m/s 731 mmHg 89%
    10:00 +7°C° 0 mm 1 m/s 731 mmHg 87%
    11:00 +8°C° 0 mm 1 m/s 732 mmHg 85%
    12:00 +8°C° 0 mm 1 m/s 732 mmHg 84%
    13:00 +8°C° 0 mm 1 m/s 732 mmHg 83%
    14:00 +7°C° 0 mm 2 m/s 733 mmHg 82%
    15:00 +7°C° 0.1 mm 2 m/s 733 mmHg 85%
    16:00 +5°C° 0.1 mm 3 m/s 734 mmHg 87%
    17:00 +5°C° 0.1 mm 3 m/s 735 mmHg 89%
    18:00 +5°C° 0.1 mm 4 m/s 735 mmHg 89%
    19:00 +5°C° 0.1 mm 5 m/s 736 mmHg 88%
    20:00 +5°C° 0.1 mm 5 m/s 737 mmHg 87%
    21:00 +5°C° 0.3 mm 5 m/s 737 mmHg 86%
    22:00 +3°C° 0.3 mm 6 m/s 738 mmHg 85%
    23:00 +3°C° 0.3 mm 6 m/s 738 mmHg 85%

    25 Octobre, Jeudi

    Heure Température Précipitation Vent Pression Humidité
    00:00 +3°C° 0.2 mm 6 m/s 738 mmHg 84%
    01:00 +3°C° 0.2 mm 7 m/s 739 mmHg 83%
    02:00 +3°C° 0.2 mm 7 m/s 739 mmHg 82%
    03:00 +3°C° 0.1 mm 7 m/s 739 mmHg 81%
    04:00 +3°C° 0.1 mm 7 m/s 740 mmHg 81%
    05:00 +3°C° 0.1 mm 7 m/s 740 mmHg 80%
    06:00 +3°C° 0.1 mm 7 m/s 740 mmHg 80%
    07:00 +3°C° 0.1 mm 7 m/s 740 mmHg 80%
    08:00 +3°C° 0.1 mm 6 m/s 740 mmHg 80%
    09:00 +3°C° 0 mm 6 m/s 740 mmHg 78%
    10:00 +3°C° 0 mm 6 m/s 740 mmHg 75%
    11:00 +4°C° 0 mm 6 m/s 740 mmHg 73%
    12:00 +5°C° 0.1 mm 5 m/s 740 mmHg 72%
    13:00 +5°C° 0.1 mm 5 m/s 740 mmHg 70%
    14:00 +6°C° 0.1 mm 5 m/s 740 mmHg 69%
    15:00 +5°C° 0 mm 4 m/s 740 mmHg 74%
    16:00 +4°C° 0 mm 3 m/s 740 mmHg 78%
    17:00 +3°C° 0 mm 3 m/s 740 mmHg 83%
    18:00 +4°C° 0 mm 2 m/s 740 mmHg 84%
    19:00 +3°C° 0 mm 2 m/s 740 mmHg 85%
    20:00 +3°C° 0 mm 2 m/s 740 mmHg 86%
    21:00 +3°C° 0 mm 2 m/s 740 mmHg 87%
    22:00 +3°C° 0 mm 2 m/s 740 mmHg 88%
    23:00 +4°C° 0 mm 1 m/s 740 mmHg 89%

    26 Octobre, Vendredi

    Heure Température Précipitation Vent Pression Humidité
    00:00 +2°C° 0 mm 2 m/s 740 mmHg 89%
    01:00 +2°C° 0 mm 2 m/s 740 mmHg 90%
    02:00 +2°C° 0 mm 2 m/s 740 mmHg 91%
    03:00 +2°C° 0.1 mm 2 m/s 740 mmHg 91%
    04:00 +2°C° 0.1 mm 2 m/s 741 mmHg 92%
    05:00 +2°C° 0.1 mm 2 m/s 741 mmHg 92%
    06:00 +2°C° 0 mm 2 m/s 741 mmHg 92%
    07:00 +2°C° 0 mm 2 m/s 741 mmHg 91%
    08:00 +2°C° 0 mm 2 m/s 741 mmHg 91%
    09:00 +2°C° 0 mm 3 m/s 742 mmHg 86%
    10:00 +3°C° 0 mm 3 m/s 742 mmHg 80%
    11:00 +4°C° 0 mm 3 m/s 742 mmHg 75%
    12:00 +4°C° 0.1 mm 3 m/s 743 mmHg 73%
    13:00 +5°C° 0.1 mm 4 m/s 743 mmHg 72%
    14:00 +5°C° 0.1 mm 4 m/s 743 mmHg 70%
    15:00 +4°C° 0 mm 4 m/s 743 mmHg 73%
    16:00 +3°C° 0 mm 4 m/s 743 mmHg 76%
    17:00 +3°C° 0 mm 4 m/s 744 mmHg 79%
    18:00 +2°C° 0 mm 3 m/s 744 mmHg 80%
    19:00 +2°C° 0 mm 3 m/s 744 mmHg 82%
    20:00 +1°C° 0 mm 3 m/s 744 mmHg 84%
    21:00 +1°C° 0 mm 3 m/s 744 mmHg 86%
    22:00 +1°C° 0 mm 3 m/s 744 mmHg 87%
    23:00 +1°C° 0 mm 2 m/s 745 mmHg 89%
    Voir plus